Time,TemperatureF,DewpointF,PressureIn,WindDirection,WindDirectionDegrees,WindSpeedMPH,WindSpeedGustMPH,Humidity,HourlyPrecipIn,Conditions,Clouds,dailyrainin,SoftwareType,DateUTC
2013-02-10 00:02:00,38.0,-99.9,-100.00,SSE,153,4.0,-999.0,-999,0.09,,,0.09,,2013-02-10 06:02:00,
2013-02-10 00:11:00,38.0,-99.9,-100.00,SSE,153,4.0,-999.0,-999,0.09,,,0.09,,2013-02-10 06:11:00,
2013-02-10 00:22:00,38.0,-99.9,-100.00,SSE,153,4.0,-999.0,-999,0.09,,,0.09,,2013-02-10 06:22:00,
2013-02-10 00:32:00,37.0,-99.9,-100.00,SE,144,4.0,-999.0,-999,0.11,,,0.12,,2013-02-10 06:32:00,
2013-02-10 00:42:00,37.0,-99.9,-100.00,SE,144,4.0,-999.0,-999,0.11,,,0.12,,2013-02-10 06:42:00,
2013-02-10 00:52:00,37.0,-99.9,-100.00,SE,144,4.0,-999.0,-999,0.11,,,0.12,,2013-02-10 06:52:00,
2013-02-10 01:01:00,37.0,-99.9,-100.00,SE,146,8.0,-999.0,-999,0.04,,,0.13,,2013-02-10 07:01:00,
2013-02-10 01:11:00,37.0,-99.9,-100.00,SE,146,8.0,-999.0,-999,0.04,,,0.13,,2013-02-10 07:11:00,
2013-02-10 01:21:00,37.0,-99.9,-100.00,SE,146,8.0,-999.0,-999,0.04,,,0.13,,2013-02-10 07:21:00,
2013-02-10 01:30:00,38.0,-99.9,-100.00,SE,142,7.0,-999.0,-999,0.00,,,0.13,,2013-02-10 07:30:00,
2013-02-10 01:32:00,38.0,-99.9,-100.00,SE,141,8.0,-999.0,-999,0.01,,,0.13,,2013-02-10 07:32:00,
2013-02-10 01:42:00,38.0,-99.9,-100.00,SE,141,8.0,-999.0,-999,0.01,,,0.13,,2013-02-10 07:42:00,
2013-02-10 01:52:00,38.0,-99.9,-100.00,SE,141,8.0,-999.0,-999,0.01,,,0.13,,2013-02-10 07:52:00,
2013-02-10 02:01:00,38.0,-99.9,-100.00,SE,142,7.0,-999.0,-999,0.00,,,0.13,,2013-02-10 08:01:00,
2013-02-10 02:11:00,38.0,-99.9,-100.00,SE,142,7.0,-999.0,-999,0.00,,,0.13,,2013-02-10 08:11:00,
2013-02-10 02:22:00,38.0,-99.9,-100.00,SE,142,7.0,-999.0,-999,0.00,,,0.13,,2013-02-10 08:22:00,
2013-02-10 03:02:00,38.0,-99.9,-100.00,SE,146,9.0,-999.0,-999,0.02,,,0.15,,2013-02-10 09:02:00,
2013-02-10 03:11:00,38.0,-99.9,-100.00,SE,146,9.0,-999.0,-999,0.02,,,0.15,,2013-02-10 09:11:00,
2013-02-10 03:22:00,38.0,-99.9,-100.00,SE,146,9.0,-999.0,-999,0.02,,,0.15,,2013-02-10 09:22:00,
2013-02-10 03:32:00,38.0,-99.9,-100.00,SE,133,5.0,-999.0,-999,0.02,,,0.16,,2013-02-10 09:32:00,
2013-02-10 03:42:00,38.0,-99.9,-100.00,SE,133,5.0,-999.0,-999,0.02,,,0.16,,2013-02-10 09:42:00,
2013-02-10 03:52:00,38.0,-99.9,-100.00,SE,133,5.0,-999.0,-999,0.02,,,0.16,,2013-02-10 09:52:00,
2013-02-10 04:00:00,38.0,-99.9,-100.00,SSE,147,8.0,-999.0,-999,0.08,,,0.24,,2013-02-10 10:00:00,
2013-02-10 04:02:00,38.0,-99.9,-100.00,SSE,148,11.0,-999.0,-999,0.03,,,0.18,,2013-02-10 10:02:00,
2013-02-10 04:11:00,38.0,-99.9,-100.00,SSE,148,11.0,-999.0,-999,0.03,,,0.18,,2013-02-10 10:11:00,
2013-02-10 04:21:00,38.0,-99.9,-100.00,SSE,148,11.0,-999.0,-999,0.03,,,0.18,,2013-02-10 10:21:00,
2013-02-10 04:32:00,38.0,-99.9,-100.00,SSE,147,8.0,-999.0,-999,0.08,,,0.24,,2013-02-10 10:32:00,
2013-02-10 04:42:00,38.0,-99.9,-100.00,SSE,147,8.0,-999.0,-999,0.08,,,0.24,,2013-02-10 10:42:00,
2013-02-10 04:52:00,38.0,-99.9,-100.00,SSE,147,8.0,-999.0,-999,0.08,,,0.24,,2013-02-10 10:52:00,
2013-02-10 05:32:00,39.0,-99.9,-100.00,SSE,150,5.0,-999.0,-999,0.06,,,0.30,,2013-02-10 11:32:00,
2013-02-10 05:42:00,39.0,-99.9,-100.00,SSE,150,5.0,-999.0,-999,0.06,,,0.30,,2013-02-10 11:42:00,
2013-02-10 05:52:00,39.0,-99.9,-100.00,SSE,150,5.0,-999.0,-999,0.06,,,0.30,,2013-02-10 11:52:00,
2013-02-10 06:02:00,38.0,-99.9,-100.00,SSE,147,7.0,-999.0,-999,0.01,,,0.31,,2013-02-10 12:02:00,
2013-02-10 06:12:00,38.0,-99.9,-100.00,SSE,147,7.0,-999.0,-999,0.01,,,0.31,,2013-02-10 12:12:00,
2013-02-10 06:22:00,38.0,-99.9,-100.00,SSE,147,7.0,-999.0,-999,0.01,,,0.31,,2013-02-10 12:22:00,
2013-02-10 06:32:00,39.0,-99.9,-100.00,SSE,151,8.0,-999.0,-999,0.02,,,0.32,,2013-02-10 12:32:00,
2013-02-10 06:42:00,39.0,-99.9,-100.00,SSE,151,8.0,-999.0,-999,0.02,,,0.32,,2013-02-10 12:42:00,
2013-02-10 06:52:00,39.0,-99.9,-100.00,SSE,151,8.0,-999.0,-999,0.02,,,0.32,,2013-02-10 12:52:00,
2013-02-10 07:02:00,40.0,-99.9,-100.00,SE,146,9.0,-999.0,-999,0.08,,,0.39,,2013-02-10 13:02:00,
2013-02-10 07:12:00,40.0,-99.9,-100.00,SE,146,9.0,-999.0,-999,0.08,,,0.39,,2013-02-10 13:12:00,
2013-02-10 07:22:00,40.0,-99.9,-100.00,SE,146,9.0,-999.0,-999,0.08,,,0.39,,2013-02-10 13:22:00,
2013-02-10 07:30:00,41.0,-99.9,-100.00,SSE,147,12.0,-999.0,-999,0.05,,,0.44,,2013-02-10 13:30:00,
2013-02-10 07:32:00,41.0,-99.9,-100.00,SE,139,12.0,-999.0,-999,0.12,,,0.44,,2013-02-10 13:32:00,
2013-02-10 07:42:00,41.0,-99.9,-100.00,SE,139,12.0,-999.0,-999,0.12,,,0.44,,2013-02-10 13:42:00,
2013-02-10 07:52:00,41.0,-99.9,-100.00,SE,139,12.0,-999.0,-999,0.12,,,0.44,,2013-02-10 13:52:00,
2013-02-10 08:02:00,41.0,-99.9,-100.00,SSE,147,12.0,-999.0,-999,0.05,,,0.44,,2013-02-10 14:02:00,
2013-02-10 08:11:00,41.0,-99.9,-100.00,SSE,147,12.0,-999.0,-999,0.05,,,0.44,,2013-02-10 14:11:00,
2013-02-10 08:22:00,41.0,-99.9,-100.00,SSE,147,12.0,-999.0,-999,0.05,,,0.44,,2013-02-10 14:22:00,
2013-02-10 08:30:00,41.0,-99.9,-100.00,SE,138,11.0,-999.0,-999,0.00,,,0.44,,2013-02-10 14:30:00,
2013-02-10 09:02:00,41.0,-99.9,-100.00,SE,138,11.0,-999.0,-999,0.00,,,0.44,,2013-02-10 15:02:00,
2013-02-10 09:12:00,41.0,-99.9,-100.00,SE,138,11.0,-999.0,-999,0.00,,,0.44,,2013-02-10 15:12:00,
2013-02-10 09:22:00,41.0,-99.9,-100.00,SE,138,11.0,-999.0,-999,0.00,,,0.44,,2013-02-10 15:22:00,
2013-02-10 09:42:00,42.0,-99.9,-100.00,SE,142,9.0,-999.0,-999,0.00,,,0.44,,2013-02-10 15:42:00,
2013-02-10 09:52:00,42.0,-99.9,-100.00,SE,142,9.0,-999.0,-999,0.00,,,0.44,,2013-02-10 15:52:00,
2013-02-10 10:02:00,45.0,-99.9,-100.00,SSE,147,10.0,-999.0,-999,0.00,,,0.44,,2013-02-10 16:02:00,
2013-02-10 10:12:00,45.0,-99.9,-100.00,SSE,147,10.0,-999.0,-999,0.00,,,0.44,,2013-02-10 16:12:00,
2013-02-10 10:22:00,45.0,-99.9,-100.00,SSE,147,10.0,-999.0,-999,0.00,,,0.44,,2013-02-10 16:22:00,
2013-02-10 10:32:00,45.0,-99.9,-100.00,SE,141,10.0,-999.0,-999,0.02,,,0.46,,2013-02-10 16:32:00,
2013-02-10 10:42:00,45.0,-99.9,-100.00,SE,141,10.0,-999.0,-999,0.02,,,0.46,,2013-02-10 16:42:00,
2013-02-10 10:52:00,45.0,-99.9,-100.00,SE,141,10.0,-999.0,-999,0.02,,,0.46,,2013-02-10 16:52:00,
2013-02-10 11:02:00,49.0,-99.9,-100.00,SSE,149,14.0,-999.0,-999,0.03,,,0.47,,2013-02-10 17:02:00,
2013-02-10 11:12:00,49.0,-99.9,-100.00,SSE,149,14.0,-999.0,-999,0.03,,,0.47,,2013-02-10 17:12:00,
2013-02-10 11:22:00,49.0,-99.9,-100.00,SSE,149,14.0,-999.0,-999,0.03,,,0.47,,2013-02-10 17:22:00,
2013-02-10 11:32:00,50.0,-99.9,-100.00,SE,146,11.0,-999.0,-999,0.01,,,0.47,,2013-02-10 17:32:00,
2013-02-10 11:42:00,50.0,-99.9,-100.00,SE,146,11.0,-999.0,-999,0.01,,,0.47,,2013-02-10 17:42:00,
2013-02-10 11:53:00,50.0,-99.9,-100.00,SE,146,11.0,-999.0,-999,0.01,,,0.47,,2013-02-10 17:53:00,
2013-02-10 12:02:00,51.0,-99.9,-100.00,SE,145,12.0,-999.0,-999,0.00,,,0.47,,2013-02-10 18:02:00,
2013-02-10 12:12:00,51.0,-99.9,-100.00,SE,145,12.0,-999.0,-999,0.00,,,0.47,,2013-02-10 18:12:00,
2013-02-10 12:22:00,51.0,-99.9,-100.00,SE,145,12.0,-999.0,-999,0.00,,,0.47,,2013-02-10 18:22:00,
2013-02-10 12:32:00,51.0,-99.9,-100.00,SE,144,11.0,-999.0,-999,0.00,,,0.47,,2013-02-10 18:32:00,
2013-02-10 12:42:00,51.0,-99.9,-100.00,SE,144,11.0,-999.0,-999,0.00,,,0.47,,2013-02-10 18:42:00,
2013-02-10 12:52:00,51.0,-99.9,-100.00,SE,144,11.0,-999.0,-999,0.00,,,0.47,,2013-02-10 18:52:00,
2013-02-10 13:02:00,51.0,-99.9,-100.00,SE,138,9.0,-999.0,-999,0.00,,,0.47,,2013-02-10 19:02:00,
2013-02-10 13:12:00,51.0,-99.9,-100.00,SE,138,9.0,-999.0,-999,0.00,,,0.47,,2013-02-10 19:12:00,
2013-02-10 13:22:00,51.0,-99.9,-100.00,SE,138,9.0,-999.0,-999,0.00,,,0.47,,2013-02-10 19:22:00,
2013-02-10 13:32:00,53.0,-99.9,-100.00,SE,142,8.0,-999.0,-999,0.00,,,0.47,,2013-02-10 19:32:00,
2013-02-10 13:43:00,53.0,-99.9,-100.00,SE,142,8.0,-999.0,-999,0.00,,,0.47,,2013-02-10 19:43:00,
2013-02-10 13:52:00,53.0,-99.9,-100.00,SE,142,8.0,-999.0,-999,0.00,,,0.47,,2013-02-10 19:52:00,
2013-02-10 14:02:00,54.0,-99.9,-100.00,SSE,148,8.0,-999.0,-999,0.00,,,0.47,,2013-02-10 20:02:00,
2013-02-10 14:12:00,54.0,-99.9,-100.00,SSE,148,8.0,-999.0,-999,0.00,,,0.47,,2013-02-10 20:12:00,
2013-02-10 14:22:00,54.0,-99.9,-100.00,SSE,148,8.0,-999.0,-999,0.00,,,0.47,,2013-02-10 20:22:00,
2013-02-10 14:32:00,57.0,-99.9,-100.00,SE,134,11.0,-999.0,-999,0.00,,,0.47,,2013-02-10 20:32:00,
2013-02-10 14:42:00,57.0,-99.9,-100.00,SE,134,11.0,-999.0,-999,0.00,,,0.47,,2013-02-10 20:42:00,
2013-02-10 14:53:00,57.0,-99.9,-100.00,SE,134,11.0,-999.0,-999,0.00,,,0.47,,2013-02-10 20:53:00,
2013-02-10 15:03:00,58.0,-99.9,-100.00,SSE,153,5.0,-999.0,-999,0.00,,,0.47,,2013-02-10 21:03:00,
2013-02-10 15:12:00,58.0,-99.9,-100.00,SSE,153,5.0,-999.0,-999,0.00,,,0.47,,2013-02-10 21:12:00,
2013-02-10 15:22:00,58.0,-99.9,-100.00,SSE,153,5.0,-999.0,-999,0.00,,,0.47,,2013-02-10 21:22:00,
2013-02-10 15:30:00,61.0,-99.9,-100.00,SE,140,7.0,-999.0,-999,0.00,,,0.47,,2013-02-10 21:30:00,
2013-02-10 15:32:00,61.0,-99.9,-100.00,SE,143,3.0,-999.0,-999,0.00,,,0.47,,2013-02-10 21:32:00,
2013-02-10 15:42:00,61.0,-99.9,-100.00,SE,143,3.0,-999.0,-999,0.00,,,0.47,,2013-02-10 21:42:00,
2013-02-10 15:52:00,61.0,-99.9,-100.00,SE,143,3.0,-999.0,-999,0.00,,,0.47,,2013-02-10 21:52:00,
2013-02-10 16:02:00,61.0,-99.9,-100.00,SE,140,7.0,-999.0,-999,0.00,,,0.47,,2013-02-10 22:02:00,
2013-02-10 16:12:00,61.0,-99.9,-100.00,SE,140,7.0,-999.0,-999,0.00,,,0.47,,2013-02-10 22:12:00,
2013-02-10 16:22:00,61.0,-99.9,-100.00,SE,140,7.0,-999.0,-999,0.00,,,0.47,,2013-02-10 22:22:00,
2013-02-10 16:42:00,63.0,-99.9,-100.00,SSE,153,6.0,-999.0,-999,0.00,,,0.47,,2013-02-10 22:42:00,
2013-02-10 16:53:00,63.0,-99.9,-100.00,SSE,153,6.0,-999.0,-999,0.00,,,0.47,,2013-02-10 22:53:00,
2013-02-10 17:02:00,61.0,-99.9,-100.00,SW,220,3.0,-999.0,-999,0.00,,,0.47,,2013-02-10 23:02:00,
2013-02-10 17:12:00,61.0,-99.9,-100.00,SW,220,3.0,-999.0,-999,0.00,,,0.47,,2013-02-10 23:12:00,
2013-02-10 17:22:00,61.0,-99.9,-100.00,SW,220,3.0,-999.0,-999,0.00,,,0.47,,2013-02-10 23:22:00,
2013-02-10 17:32:00,60.0,-99.9,-100.00,South,183,3.0,-999.0,-999,0.00,,,0.47,,2013-02-10 23:32:00,
2013-02-10 17:42:00,60.0,-99.9,-100.00,South,183,3.0,-999.0,-999,0.00,,,0.47,,2013-02-10 23:42:00,
2013-02-10 17:52:00,60.0,-99.9,-100.00,South,183,3.0,-999.0,-999,0.00,,,0.47,,2013-02-10 23:52:00,
2013-02-10 18:02:00,58.0,-99.9,-100.00,SW,215,3.0,-999.0,-999,0.00,,,0.47,,2013-02-11 00:02:00,
2013-02-10 18:11:00,58.0,-99.9,-100.00,SW,215,3.0,-999.0,-999,0.00,,,0.47,,2013-02-11 00:11:00,
2013-02-10 18:22:00,58.0,-99.9,-100.00,SW,215,3.0,-999.0,-999,0.00,,,0.47,,2013-02-11 00:22:00,
2013-02-10 18:32:00,55.0,-99.9,-100.00,WSW,246,2.0,-999.0,-999,0.00,,,0.47,,2013-02-11 00:32:00,
2013-02-10 18:42:00,55.0,-99.9,-100.00,WSW,246,2.0,-999.0,-999,0.00,,,0.47,,2013-02-11 00:42:00,
2013-02-10 18:52:00,55.0,-99.9,-100.00,WSW,246,2.0,-999.0,-999,0.00,,,0.47,,2013-02-11 00:52:00,
2013-02-10 19:02:00,55.0,-99.9,-100.00,SW,236,1.0,-999.0,-999,0.00,,,0.47,,2013-02-11 01:02:00,
2013-02-10 19:11:00,55.0,-99.9,-100.00,SW,236,1.0,-999.0,-999,0.00,,,0.47,,2013-02-11 01:11:00,
2013-02-10 19:22:00,55.0,-99.9,-100.00,SW,236,1.0,-999.0,-999,0.00,,,0.47,,2013-02-11 01:22:00,
2013-02-10 19:32:00,53.0,-99.9,-100.00,SSW,196,4.0,-999.0,-999,0.00,,,0.47,,2013-02-11 01:32:00,
2013-02-10 19:42:00,53.0,-99.9,-100.00,SSW,196,4.0,-999.0,-999,0.00,,,0.47,,2013-02-11 01:42:00,
2013-02-10 19:52:00,53.0,-99.9,-100.00,SSW,196,4.0,-999.0,-999,0.00,,,0.47,,2013-02-11 01:52:00,
2013-02-10 20:01:00,52.0,-99.9,-100.00,SW,224,4.0,-999.0,-999,0.00,,,0.47,,2013-02-11 02:01:00,
2013-02-10 20:11:00,52.0,-99.9,-100.00,SW,224,4.0,-999.0,-999,0.00,,,0.47,,2013-02-11 02:11:00,
2013-02-10 20:21:00,52.0,-99.9,-100.00,SW,224,4.0,-999.0,-999,0.00,,,0.47,,2013-02-11 02:21:00,
2013-02-10 20:32:00,52.0,-99.9,-100.00,WNW,284,1.0,-999.0,-999,0.00,,,0.47,,2013-02-11 02:32:00,
2013-02-10 20:42:00,52.0,-99.9,-100.00,WNW,284,1.0,-999.0,-999,0.00,,,0.47,,2013-02-11 02:42:00,
2013-02-10 20:52:00,52.0,-99.9,-100.00,WNW,284,1.0,-999.0,-999,0.00,,,0.47,,2013-02-11 02:52:00,
2013-02-10 21:02:00,50.0,-99.9,-100.00,West,260,4.0,-999.0,-999,0.00,,,0.47,,2013-02-11 03:02:00,
2013-02-10 21:11:00,50.0,-99.9,-100.00,West,260,4.0,-999.0,-999,0.00,,,0.47,,2013-02-11 03:11:00,
2013-02-10 21:22:00,50.0,-99.9,-100.00,West,260,4.0,-999.0,-999,0.00,,,0.47,,2013-02-11 03:22:00,
2013-02-10 21:32:00,49.0,-99.9,-100.00,SW,230,4.0,-999.0,-999,0.00,,,0.47,,2013-02-11 03:32:00,
2013-02-10 21:42:00,49.0,-99.9,-100.00,SW,230,4.0,-999.0,-999,0.00,,,0.47,,2013-02-11 03:42:00,
2013-02-10 21:52:00,49.0,-99.9,-100.00,SW,230,4.0,-999.0,-999,0.00,,,0.47,,2013-02-11 03:52:00,
2013-02-10 22:02:00,47.0,-99.9,-100.00,West,263,2.0,-999.0,-999,0.00,,,0.47,,2013-02-11 04:02:00,
2013-02-10 22:11:00,47.0,-99.9,-100.00,West,263,2.0,-999.0,-999,0.00,,,0.47,,2013-02-11 04:11:00,
2013-02-10 22:22:00,47.0,-99.9,-100.00,West,263,2.0,-999.0,-999,0.00,,,0.47,,2013-02-11 04:22:00,
2013-02-10 22:32:00,45.0,-99.9,-100.00,SSE,167,4.0,-999.0,-999,0.00,,,0.47,,2013-02-11 04:32:00,
2013-02-10 22:42:00,45.0,-99.9,-100.00,SSE,167,4.0,-999.0,-999,0.00,,,0.47,,2013-02-11 04:42:00,
2013-02-10 22:52:00,45.0,-99.9,-100.00,SSE,167,4.0,-999.0,-999,0.00,,,0.47,,2013-02-11 04:52:00,
2013-02-10 23:02:00,45.0,-99.9,-100.00,WSW,254,3.0,-999.0,-999,0.00,,,0.47,,2013-02-11 05:02:00,
2013-02-10 23:12:00,45.0,-99.9,-100.00,WSW,254,3.0,-999.0,-999,0.00,,,0.47,,2013-02-11 05:12:00,
2013-02-10 23:22:00,45.0,-99.9,-100.00,WSW,254,3.0,-999.0,-999,0.00,,,0.47,,2013-02-11 05:22:00,
2013-02-10 23:32:00,45.0,-99.9,-100.00,WSW,251,7.0,-999.0,-999,0.00,,,0.46,,2013-02-11 05:32:00,
2013-02-10 23:42:00,45.0,-99.9,-100.00,WSW,251,7.0,-999.0,-999,0.00,,,0.46,,2013-02-11 05:42:00,
2013-02-10 23:53:00,45.0,-99.9,-100.00,WSW,251,7.0,-999.0,-999,0.00,,,0.46,,2013-02-11 05:53:00,